Location: Donzy-le-Pr�
(47.3659°N, 3.1107°E)
Time: 10:26:46
(UTC+00:00)

USA 307 - Pass Details

Date: 03 March 2021
Orbit: 567 x 577 km, 54.0° (Epoch: 22 April)

Event Time Altitude Azimuth Distance (km) Brightness Sun altitude
Rises 18:14:26 0° 270° (W) 2,785 9.1 -7.3°
Reaches altitude 10° 18:16:50 10° 279° (W) 1,885 7.2 -7.7°
Maximum altitude 18:20:50 38° 348° (NNW) 892 4.0 -8.4°
Drops below altitude 10° 18:24:51 10° 57° (ENE) 1,881 5.0 -9.1°
Enters shadow 18:25:13 - 59° (ENE) 2,014 5.2 -9.2°
